Meteo Giornale » Osservazioni meteo Stati Uniti (USA) » Owatonna

ore: 15:55 - Osservazioni Meteo Owatonna
Lat. 44° 7' N Lon. 93° 15' W Alt. 350 metri s.l.m.

sereno

30 °C

Sereno

Temp. 24 Ore

21 °C

30 °C

Nord-Ovest

9.3 Km/h

Dew point 22 °C

Umidità 62 %

Visibilità  10 Km

Il sole sorge alle ore 06:35

Il sole tramonta alle ore 19:51

Data e Ora Cielo e Fenomeni T °C DP °C Um. % Pres. hPa Vis. km Vento km/h
Oggi h: 15:55 sereno Sereno 30 22 62 1011 10 NO 9.3
Oggi h: 15:35 sereno Sereno 30 23 66 1011 10 NO 13
Oggi h: 15:15 poco_nuvoloso Poco Nuvoloso 30 24 70 1011 10 N/NO 11.1
Oggi h: 14:55 nuvoloso Nuvoloso 29 24 74 1011 10 NO 9.3
Oggi h: 14:35 molto_nuvoloso Molto Nuvoloso 29 24 74 1011 10 N/NO 13
Oggi h: 14:15 molto_nuvoloso Molto Nuvoloso 28 24 78 1011 10 N/NO 7.4
Oggi h: 13:55 coperto Coperto 28 24 78 1011 10 NO 9.3
Oggi h: 13:35 molto_nuvoloso Molto Nuvoloso 27 24 83 1011 10 N 9.3
Oggi h: 13:15 molto_nuvoloso Molto Nuvoloso 27 24 83 1011 10 O/NO 7.4
Oggi h: 12:55 nuvoloso Nuvoloso 26 24 88 1011 10 N 0
Oggi h: 12:35 molto_nuvoloso Molto Nuvoloso 26 24 88 1011 10 O/NO 9.3
Oggi h: 12:15 molto_nuvoloso Molto Nuvoloso 26 24 88 1011 10 NO 7.4
Oggi h: 11:55 coperto Coperto 26 24 88 1011 10 N 5.5
Oggi h: 11:35 molto_nuvoloso Molto Nuvoloso 26 23 83 1011 10 NO 7.4
Oggi h: 11:15 poco_nuvoloso Poco Nuvoloso 25 23 88 1011 10 N 5.5
Oggi h: 10:55 poco_nuvoloso Poco Nuvoloso 26 23 83 1011 10 O 7.4
Oggi h: 10:35 nuvoloso Nuvoloso 25 23 88 1011 10 O/NO 7.4
Oggi h: 10:15 molto_nuvoloso Molto Nuvoloso 25 23 88 1011 10 O 7.4
Oggi h: 09:55 poco_nuvoloso Poco Nuvoloso 25 23 88 1010 10 O/NO 13
Oggi h: 09:35 sereno Sereno 25 23 88 1010 10 O/SO 11.1
Oggi h: 09:15 sereno Sereno 24 23 94 1010 10 O/SO 11.1
Oggi h: 08:55 sereno Sereno 24 23 94 1010 10 O/SO 13
Oggi h: 08:35 sereno Sereno 24 23 94 1009 10 SO 9.3
Oggi h: 08:15 sereno Sereno 23 22 94 1009 10 SO 7.4
Oggi h: 07:55 sereno Sereno 23 22 94 1009 10 N 5.5
Oggi h: 07:35 sereno Sereno 22 22 100 1009 10 N 0
Oggi h: 07:15 sereno Sereno 21 21 100 1009 10 N 0
Oggi h: 06:55 sereno Sereno 21 21 100 1009 13 N 0
Oggi h: 06:35 sereno Sereno 22 21 94 1008 14 N 0
Oggi h: 06:15 sereno Sereno 22 22 100 1008 10 S/SE 7.4
Oggi h: 05:55 sereno Sereno 22 22 100 1008 10 S 7.4
Oggi h: 05:35 sereno Sereno 22 22 100 1008 10 S 14.8
Oggi h: 05:15 poco_nuvoloso Poco Nuvoloso 22 22 100 1008 10 S 14.8
Oggi h: 04:55 nuvoloso Nuvoloso 22 22 100 1008 10 S 16.7
Oggi h: 04:35 sereno Sereno 22 22 100 1008 10 S 18.5
Oggi h: 04:15 sereno Sereno 22 22 100 1008 10 S 14.8
Oggi h: 03:55 sereno Sereno 22 22 100 1008 10 S 14.8
Oggi h: 03:35 sereno Sereno 22 22 100 1008 10 S 14.8
Oggi h: 03:15 sereno Sereno 22 22 100 1008 10 S 14.8
Oggi h: 02:55 sereno Sereno 22 22 100 1008 10 S 20.3
Oggi h: 02:35 sereno Sereno 22 22 100 1008 10 S 20.3
Oggi h: 02:15 sereno Sereno 23 22 94 1008 10 S 18.5
Oggi h: 01:55 sereno Sereno 23 22 94 1008 10 S 20.3
Oggi h: 01:35 sereno Sereno 23 22 94 1008 10 S 20.3
Oggi h: 01:15 sereno Sereno 22 22 100 1008 10 S 20.3
Oggi h: 00:55 sereno Sereno 23 22 94 1008 10 S 20.3
Oggi h: 00:35 sereno Sereno 22 22 100 1009 10 S 18.5
Oggi h: 00:15 sereno Sereno 22 22 100 1009 10 S 18.5
Ieri h: 23:55 sereno Sereno 22 21 94 1009 10 S 13
Ieri h: 23:35 sereno Sereno 23 21 88 1009 10 S 18.5
Ieri h: 23:15 sereno Sereno 23 21 88 1009 10 S/SE 20.3
Ieri h: 22:55 sereno Sereno 23 21 88 1009 10 S 20.3
Ieri h: 22:35 sereno Sereno 23 21 88 1009 10 S/SE 20.3
Ieri h: 22:15 sereno Sereno 23 21 88 1009 10 S/SE 20.3
Ieri h: 21:55 sereno Sereno 23 21 88 1009 10 S/SE 20.3
Ieri h: 21:35 poco_nuvoloso Poco Nuvoloso 23 21 88 1009 10 S/SE 22.2
Ieri h: 21:15 molto_nuvoloso Molto Nuvoloso 23 21 88 1009 10 S/SE 20.3
Ieri h: 20:55 poco_nuvoloso Poco Nuvoloso 23 21 88 1009 10 S/SE 22.2
Ieri h: 20:35 sereno Sereno 23 21 88 1009 10 S 20.3
Ieri h: 20:15 sereno Sereno 23 21 88 1009 10 S/SE 24
Ieri h: 19:55 sereno Sereno 24 21 83 1009 10 S/SE 24
Ieri h: 19:35 sereno Sereno 24 21 83 1009 10 S/SE 16.7
Ieri h: 19:15 sereno Sereno 25 21 78 1008 10 S/SE 16.7
Ieri h: 18:55 sereno Sereno 25 21 78 1009 10 S/SE 18.5
Ieri h: 18:35 sereno Sereno 26 21 73 1008 10 S/SE 20.3
Ieri h: 18:15 sereno Sereno 26 21 73 1009 10 S/SE 24
Ieri h: 17:55 nuvoloso Nuvoloso 27 20 65 1008 10 S 22.2
Ieri h: 17:35 nuvoloso Nuvoloso 28 20 61 1008 10 S 18.5
Ieri h: 17:15 sereno Sereno 28 21 65 1008 10 S/SE 18.5
Ieri h: 16:55 sereno Sereno 28 21 65 1008 10 S 18.5
Ieri h: 16:35 poco_nuvoloso Poco Nuvoloso 28 22 69 1008 10 S 16.7